Location: Home
(42.5358°N, 72.7383°W)
Time: 18:15:38
(UTC-05:00)

Courier 1B Rocket - All Passes

Search period start: 29 November 2021 00:00
Search period end: 09 December 2021 00:00
Orbit: 920 x 1202 km, 28.2° (Epoch: 29 November)

Date Brightness Start Highest point End Pass type
(mag) Time Alt. Az. Time Alt. Az. Time Alt. Az.
29 Nov - 00:57:21 10° SSW 01:01:33 19° S 01:05:49 10° SE night (unlit)
29 Nov - 02:49:17 10° SW 02:53:58 22° S 02:58:49 10° SE visible
29 Nov - 04:42:50 10° SW 04:46:25 15° SSW 04:50:05 10° SSE visible
29 Nov - 23:57:16 10° SSW 00:00:52 16° SSE 00:04:29 10° SE night (unlit)
30 Nov - 01:48:36 10° SW 01:53:14 22° S 01:57:58 10° SE night (unlit)
30 Nov - 03:41:34 10° SW 03:45:40 18° SSW 03:49:54 10° SSE visible
30 Nov - 22:57:38 10° S 23:00:12 13° SSE 23:02:44 10° SE night (unlit)
01 Dec - 00:48:02 10° SW 00:52:31 21° S 00:57:02 10° SE night (unlit)
01 Dec - 02:40:33 10° SW 02:44:56 20° S 02:49:26 10° SE visible
01 Dec - 04:35:38 10° SW 04:37:18 11° SSW 04:38:59 10° S visible
01 Dec - 23:47:37 10° SSW 23:51:48 19° S 23:56:00 10° SE night (unlit)
02 Dec - 01:39:41 10° SW 01:44:12 21° S 01:48:48 10° SE night (unlit)
02 Dec - 03:33:27 10° SW 03:36:35 14° SSW 03:39:47 10° SSE visible
02 Dec - 22:47:24 10° SSW 22:51:07 16° SSE 22:54:48 10° SE night (unlit)
03 Dec - 00:38:55 10° SW 00:43:30 21° S 00:48:05 10° SE night (unlit)
03 Dec - 02:32:03 10° SW 02:35:53 17° SSW 02:39:47 10° SSE visible
03 Dec - 21:47:33 10° S 21:50:25 13° SSE 21:53:15 10° SE night (unlit)
03 Dec - 23:38:15 10° SW 23:42:47 21° S 23:47:16 10° SE night (unlit)
04 Dec - 01:30:56 10° SW 01:35:11 19° S 01:39:29 10° SE night (unlit)
04 Dec - 03:27:17 10° SSW 03:27:29 10° SSW 03:27:42 10° SSW visible
04 Dec - 20:49:09 10° SSE 20:49:44 10° SSE 20:50:19 10° SSE night (unlit)
04 Dec - 22:37:42 10° SW 22:42:04 19° S 22:46:21 10° SE night (unlit)
05 Dec - 00:29:57 10° SW 00:34:29 21° S 00:38:59 10° SE night (unlit)
05 Dec - 02:24:00 10° SW 02:26:49 13° SSW 02:29:39 10° S night (unlit)
05 Dec - 21:37:19 10° SSW 21:41:20 17° SSE 21:45:15 10° SE night (unlit)
05 Dec - 23:29:04 10° SW 23:33:46 22° S 23:38:22 10° SE night (unlit)
06 Dec - 01:22:25 10° SW 01:26:08 16° SSW 01:29:52 10° SSE night (unlit)
06 Dec - 20:37:15 10° SSW 20:40:37 14° SSE 20:43:54 10° SE visible
06 Dec - 22:28:17 10° SW 22:33:02 21° S 22:37:39 10° SE night (unlit)
07 Dec - 00:21:09 10° SW 00:25:27 19° S 00:29:42 10° SSE night (unlit)
07 Dec - 19:37:54 10° S 19:39:52 11° SSE 19:41:48 10° SE visible
07 Dec - 21:27:36 10° SW 21:32:17 20° S 21:36:48 10° SE night (unlit)
07 Dec - 23:20:04 10° SW 23:24:45 21° S 23:29:18 10° SE night (unlit)
08 Dec - 01:14:20 10° SW 01:17:03 13° SSW 01:19:46 10° S night (unlit)
08 Dec - 20:27:04 10° SSW 20:31:31 18° SSE 20:35:48 10° SE visible
08 Dec - 22:19:03 10° SW 22:24:00 22° S 22:28:46 10° SE night (unlit)
